contact:dominique.lefevre@mio.osupytheas.fr, maurice.libes@osupytheas.fr, didier.mallarino@osupytheas.fr
Project:EMSO http://www.emso-fr.org/EMSO-France
Depth: 2436.0 m
Title:EMSO Ligure Ouest : Data MII capteur MICROCAT
DateTime_Computer,Latitude,Longitude,Temperature,Conductivity,Pressure,DateTime_Instrument
DateTime_Computer,Latitude,Longitude,degC,S m-1,dbar,DateTime_Instrument
2021-09-26T00:01:13Z,42.805,6.029,13.2994,4.60007,2470.483,2021-9-26T02:02:35Z
2021-09-26T00:04:16Z,42.805,6.029,13.2991,4.60009,2470.45,2021-9-26T02:05:38Z
2021-09-26T00:07:19Z,42.805,6.029,13.2991,4.60009,2470.497,2021-9-26T02:08:41Z
2021-09-26T00:10:22Z,42.805,6.029,13.2992,4.60007,2470.483,2021-9-26T02:11:44Z
2021-09-26T00:13:25Z,42.805,6.029,13.2994,4.60010,2470.497,2021-9-26T02:14:47Z
2021-09-26T00:16:29Z,42.805,6.029,13.2991,4.60007,2470.483,2021-9-26T02:17:50Z
2021-09-26T00:19:32Z,42.805,6.029,13.2991,4.60011,2470.483,2021-9-26T02:20:54Z
2021-09-26T00:22:35Z,42.805,6.029,13.2993,4.60010,2470.497,2021-9-26T02:23:57Z
2021-09-26T00:25:38Z,42.805,6.029,13.2992,4.60009,2470.474,2021-9-26T02:27:00Z
2021-09-26T00:28:41Z,42.805,6.029,13.2993,4.60011,2470.483,2021-9-26T02:30:03Z
2021-09-26T00:31:44Z,42.805,6.029,13.2992,4.60013,2470.497,2021-9-26T02:33:06Z
2021-09-26T00:34:47Z,42.805,6.029,13.2992,4.60009,2470.46,2021-9-26T02:36:09Z
2021-09-26T00:37:50Z,42.805,6.029,13.2992,4.60009,2470.474,2021-9-26T02:39:12Z
2021-09-26T00:40:53Z,42.805,6.029,13.2991,4.60009,2470.483,2021-9-26T02:42:15Z
2021-09-26T00:43:57Z,42.805,6.029,13.2990,4.60009,2470.474,2021-9-26T02:45:18Z
2021-09-26T00:47:00Z,42.805,6.029,13.2993,4.60009,2470.46,2021-9-26T02:48:22Z
2021-09-26T00:50:03Z,42.805,6.029,13.2993,4.60008,2470.437,2021-9-26T02:51:25Z
2021-09-26T00:53:06Z,42.805,6.029,13.2992,4.60009,2470.437,2021-9-26T02:54:28Z
2021-09-26T00:56:09Z,42.805,6.029,13.2994,4.60008,2470.46,2021-9-26T02:57:31Z
2021-09-26T00:59:12Z,42.805,6.029,13.2991,4.60008,2470.437,2021-9-26T03:00:34Z
2021-09-26T01:02:15Z,42.805,6.029,13.2991,4.60008,2470.474,2021-9-26T03:03:37Z
2021-09-26T01:05:18Z,42.805,6.029,13.2990,4.60010,2470.446,2021-9-26T03:06:40Z
2021-09-26T01:08:22Z,42.805,6.029,13.2992,4.60009,2470.46,2021-9-26T03:09:43Z
2021-09-26T01:11:25Z,42.805,6.029,13.2993,4.60009,2470.45,2021-9-26T03:12:47Z
2021-09-26T01:14:28Z,42.805,6.029,13.2993,4.60010,2470.45,2021-9-26T03:15:50Z
2021-09-26T01:17:31Z,42.805,6.029,13.2992,4.60009,2470.437,2021-9-26T03:18:53Z
2021-09-26T01:20:34Z,42.805,6.029,13.2991,4.60009,2470.423,2021-9-26T03:21:56Z
2021-09-26T01:23:37Z,42.805,6.029,13.2993,4.60009,2470.437,2021-9-26T03:24:59Z
2021-09-26T01:26:40Z,42.805,6.029,13.2994,4.60009,2470.437,2021-9-26T03:28:02Z
2021-09-26T01:29:43Z,42.805,6.029,13.2990,4.60009,2470.413,2021-9-26T03:31:05Z
2021-09-26T01:32:47Z,42.805,6.029,13.2990,4.60007,2470.437,2021-9-26T03:34:08Z
2021-09-26T01:35:50Z,42.805,6.029,13.2989,4.60009,2470.437,2021-9-26T03:37:12Z
2021-09-26T01:38:53Z,42.805,6.029,13.2990,4.60009,2470.427,2021-9-26T03:40:15Z
2021-09-26T01:41:56Z,42.805,6.029,13.2996,4.60008,2470.45,2021-9-26T03:43:18Z
2021-09-26T01:44:59Z,42.805,6.029,13.2990,4.60010,2470.413,2021-9-26T03:46:21Z
2021-09-26T01:48:02Z,42.805,6.029,13.2993,4.60008,2470.437,2021-9-26T03:49:24Z
2021-09-26T01:51:05Z,42.805,6.029,13.2993,4.60009,2470.413,2021-9-26T03:52:27Z
2021-09-26T01:54:08Z,42.805,6.029,13.2991,4.60009,2470.437,2021-9-26T03:55:30Z
2021-09-26T01:57:12Z,42.805,6.029,13.2993,4.60010,2470.437,2021-9-26T03:58:33Z
2021-09-26T02:00:15Z,42.805,6.029,13.2992,4.60010,2470.413,2021-9-26T04:01:37Z
2021-09-26T02:03:18Z,42.805,6.029,13.2994,4.60011,2470.474,2021-9-26T04:04:40Z
2021-09-26T02:06:21Z,42.805,6.029,13.2993,4.60009,2470.427,2021-9-26T04:07:43Z
2021-09-26T02:09:24Z,42.805,6.029,13.2990,4.60008,2470.413,2021-9-26T04:10:46Z
2021-09-26T02:12:27Z,42.805,6.029,13.2991,4.60010,2470.46,2021-9-26T04:13:49Z
2021-09-26T02:15:30Z,42.805,6.029,13.2993,4.60008,2470.45,2021-9-26T04:16:52Z
2021-09-26T02:18:33Z,42.805,6.029,13.2991,4.60010,2470.45,2021-9-26T04:19:55Z
2021-09-26T02:21:37Z,42.805,6.029,13.2990,4.60015,2470.45,2021-9-26T04:22:58Z
2021-09-26T02:24:40Z,42.805,6.029,13.2992,4.60009,2470.427,2021-9-26T04:26:02Z
2021-09-26T02:27:43Z,42.805,6.029,13.2990,4.60007,2470.413,2021-9-26T04:29:05Z
2021-09-26T02:30:46Z,42.805,6.029,13.2993,4.60007,2470.413,2021-9-26T04:32:08Z
2021-09-26T02:33:49Z,42.805,6.029,13.2990,4.60006,2470.46,2021-9-26T04:35:11Z
2021-09-26T02:36:52Z,42.805,6.029,13.2988,4.60009,2470.427,2021-9-26T04:38:14Z
2021-09-26T02:39:55Z,42.805,6.029,13.2991,4.60009,2470.413,2021-9-26T04:41:17Z
2021-09-26T02:42:58Z,42.805,6.029,13.2988,4.60005,2470.413,2021-9-26T04:44:20Z
2021-09-26T02:46:02Z,42.805,6.029,13.2993,4.60007,2470.413,2021-9-26T04:47:23Z
2021-09-26T02:49:05Z,42.805,6.029,13.2994,4.60007,2470.404,2021-9-26T04:50:27Z
2021-09-26T02:52:08Z,42.805,6.029,13.2991,4.60007,2470.413,2021-9-26T04:53:30Z
2021-09-26T02:55:11Z,42.805,6.029,13.2991,4.60005,2470.427,2021-9-26T04:56:33Z
2021-09-26T02:58:14Z,42.805,6.029,13.2991,4.60009,2470.427,2021-9-26T04:59:36Z
2021-09-26T03:01:17Z,42.805,6.029,13.2990,4.60007,2470.413,2021-9-26T05:02:39Z
2021-09-26T03:04:20Z,42.805,6.029,13.2993,4.60011,2470.427,2021-9-26T05:05:42Z
2021-09-26T03:07:23Z,42.805,6.029,13.2990,4.60010,2470.427,2021-9-26T05:08:45Z
2021-09-26T03:10:26Z,42.805,6.029,13.2991,4.60006,2470.39,2021-9-26T05:11:48Z
2021-09-26T03:13:30Z,42.805,6.029,13.2992,4.60006,2470.427,2021-9-26T05:14:51Z
2021-09-26T03:16:33Z,42.805,6.029,13.2990,4.60008,2470.404,2021-9-26T05:17:55Z
2021-09-26T03:19:36Z,42.805,6.029,13.2991,4.60008,2470.45,2021-9-26T05:20:58Z
2021-09-26T03:22:39Z,42.805,6.029,13.2993,4.60007,2470.404,2021-9-26T05:24:01Z
2021-09-26T03:25:42Z,42.805,6.029,13.2992,4.60014,2470.45,2021-9-26T05:27:04Z
2021-09-26T03:28:45Z,42.805,6.029,13.2990,4.60008,2470.413,2021-9-26T05:30:07Z
2021-09-26T03:31:48Z,42.805,6.029,13.2990,4.60011,2470.39,2021-9-26T05:33:10Z
2021-09-26T03:34:51Z,42.805,6.029,13.2991,4.60006,2470.413,2021-9-26T05:36:13Z
2021-09-26T03:37:55Z,42.805,6.029,13.2993,4.60008,2470.437,2021-9-26T05:39:16Z
2021-09-26T03:40:58Z,42.805,6.029,13.2990,4.60006,2470.353,2021-9-26T05:42:20Z
2021-09-26T03:44:01Z,42.805,6.029,13.2991,4.60007,2470.39,2021-9-26T05:45:23Z
2021-09-26T03:47:04Z,42.805,6.029,13.2992,4.60009,2470.39,2021-9-26T05:48:26Z
2021-09-26T03:50:07Z,42.805,6.029,13.2990,4.60005,2470.413,2021-9-26T05:51:29Z
2021-09-26T03:53:10Z,42.805,6.029,13.2987,4.60009,2470.39,2021-9-26T05:54:32Z
2021-09-26T03:56:13Z,42.805,6.029,13.2990,4.60007,2470.404,2021-9-26T05:57:35Z
2021-09-26T03:59:16Z,42.805,6.029,13.2991,4.60009,2470.413,2021-9-26T06:00:38Z
2021-09-26T04:02:20Z,42.805,6.029,13.2992,4.60007,2470.413,2021-9-26T06:03:41Z
2021-09-26T04:05:23Z,42.805,6.029,13.2991,4.60005,2470.437,2021-9-26T06:06:45Z
2021-09-26T04:08:26Z,42.805,6.029,13.2995,4.60005,2470.413,2021-9-26T06:09:48Z
2021-09-26T04:11:29Z,42.805,6.029,13.2993,4.60006,2470.39,2021-9-26T06:12:51Z
2021-09-26T04:14:32Z,42.805,6.029,13.2993,4.60006,2470.38,2021-9-26T06:15:54Z
2021-09-26T04:17:35Z,42.805,6.029,13.2991,4.60007,2470.404,2021-9-26T06:18:57Z
2021-09-26T04:20:38Z,42.805,6.029,13.2992,4.60009,2470.404,2021-9-26T06:22:00Z
2021-09-26T04:23:41Z,42.805,6.029,13.2994,4.60007,2470.404,2021-9-26T06:25:03Z
2021-09-26T04:26:44Z,42.805,6.029,13.2991,4.60006,2470.39,2021-9-26T06:28:06Z
2021-09-26T04:29:48Z,42.805,6.029,13.2995,4.60006,2470.38,2021-9-26T06:31:10Z
2021-09-26T04:32:51Z,42.805,6.029,13.2991,4.60007,2470.39,2021-9-26T06:34:13Z
2021-09-26T04:35:54Z,42.805,6.029,13.2990,4.60006,2470.39,2021-9-26T06:37:16Z
2021-09-26T04:38:57Z,42.805,6.029,13.2993,4.60009,2470.39,2021-9-26T06:40:19Z
2021-09-26T04:42:00Z,42.805,6.029,13.2990,4.60007,2470.45,2021-9-26T06:43:22Z
2021-09-26T04:45:03Z,42.805,6.029,13.2993,4.60009,2470.404,2021-9-26T06:46:25Z
2021-09-26T04:48:06Z,42.805,6.029,13.2990,4.60006,2470.404,2021-9-26T06:49:28Z
2021-09-26T04:51:09Z,42.805,6.029,13.2989,4.60007,2470.39,2021-9-26T06:52:31Z
2021-09-26T04:54:13Z,42.805,6.029,13.2993,4.60006,2470.39,2021-9-26T06:55:35Z
2021-09-26T04:57:16Z,42.805,6.029,13.2993,4.60008,2470.404,2021-9-26T06:58:38Z
2021-09-26T05:00:19Z,42.805,6.029,13.2990,4.60007,2470.413,2021-9-26T07:01:41Z
2021-09-26T05:03:22Z,42.805,6.029,13.2993,4.60007,2470.427,2021-9-26T07:04:44Z
2021-09-26T05:06:25Z,42.805,6.029,13.2987,4.60006,2470.404,2021-9-26T07:07:47Z
2021-09-26T05:09:28Z,42.805,6.029,13.2990,4.60005,2470.39,2021-9-26T07:10:50Z
2021-09-26T05:12:31Z,42.805,6.029,13.2996,4.60011,2470.437,2021-9-26T07:13:53Z
2021-09-26T05:15:34Z,42.805,6.029,13.2993,4.60009,2470.437,2021-9-26T07:16:56Z
2021-09-26T05:18:38Z,42.805,6.029,13.2990,4.60006,2470.404,2021-9-26T07:20:00Z
2021-09-26T05:21:41Z,42.805,6.029,13.2990,4.60008,2470.427,2021-9-26T07:23:03Z
2021-09-26T05:24:44Z,42.805,6.029,13.2991,4.60017,2470.39,2021-9-26T07:26:06Z
2021-09-26T05:27:47Z,42.805,6.029,13.2991,4.60008,2470.427,2021-9-26T07:29:09Z
2021-09-26T05:30:50Z,42.805,6.029,13.2991,4.60006,2470.404,2021-9-26T07:32:12Z
2021-09-26T05:33:53Z,42.805,6.029,13.2989,4.60007,2470.404,2021-9-26T07:35:15Z
2021-09-26T05:36:56Z,42.805,6.029,13.2991,4.60007,2470.39,2021-9-26T07:38:18Z
2021-09-26T05:39:59Z,42.805,6.029,13.2993,4.60009,2470.404,2021-9-26T07:41:21Z
2021-09-26T05:43:03Z,42.805,6.029,13.2991,4.60009,2470.39,2021-9-26T07:44:24Z
2021-09-26T05:46:06Z,42.805,6.029,13.2990,4.60010,2470.45,2021-9-26T07:47:28Z
2021-09-26T05:49:09Z,42.805,6.029,13.2991,4.60006,2470.413,2021-9-26T07:50:31Z
2021-09-26T05:52:12Z,42.805,6.029,13.2991,4.60005,2470.437,2021-9-26T07:53:34Z
2021-09-26T05:55:15Z,42.805,6.029,13.2990,4.60006,2470.413,2021-9-26T07:56:37Z
2021-09-26T05:58:18Z,42.805,6.029,13.2991,4.60006,2470.46,2021-9-26T07:59:40Z
2021-09-26T06:01:21Z,42.805,6.029,13.2992,4.60008,2470.413,2021-9-26T08:02:43Z
2021-09-26T06:04:24Z,42.805,6.029,13.2991,4.60006,2470.413,2021-9-26T08:05:46Z
2021-09-26T06:07:28Z,42.805,6.029,13.3000,4.60005,2470.413,2021-9-26T08:08:49Z
2021-09-26T06:10:31Z,42.805,6.029,13.2991,4.60007,2470.413,2021-9-26T08:11:53Z
2021-09-26T06:13:34Z,42.805,6.029,13.2993,4.60010,2470.46,2021-9-26T08:14:56Z
2021-09-26T06:16:37Z,42.805,6.029,13.2990,4.60007,2470.427,2021-9-26T08:17:59Z
2021-09-26T06:19:40Z,42.805,6.029,13.2994,4.60006,2470.474,2021-9-26T08:21:02Z
2021-09-26T06:22:43Z,42.805,6.029,13.2990,4.60007,2470.437,2021-9-26T08:24:05Z
2021-09-26T06:25:46Z,42.805,6.029,13.2990,4.60007,2470.437,2021-9-26T08:27:08Z
2021-09-26T06:28:49Z,42.805,6.029,13.2989,4.60006,2470.427,2021-9-26T08:30:11Z
2021-09-26T06:31:53Z,42.805,6.029,13.2990,4.60007,2470.427,2021-9-26T08:33:14Z
2021-09-26T06:34:56Z,42.805,6.029,13.2991,4.60009,2470.437,2021-9-26T08:36:18Z
2021-09-26T06:37:59Z,42.805,6.029,13.2996,4.60011,2470.45,2021-9-26T08:39:21Z
2021-09-26T06:41:02Z,42.805,6.029,13.2990,4.60008,2470.437,2021-9-26T08:42:24Z
2021-09-26T06:44:05Z,42.805,6.029,13.2990,4.60007,2470.437,2021-9-26T08:45:27Z
2021-09-26T06:47:08Z,42.805,6.029,13.2992,4.60009,2470.474,2021-9-26T08:48:30Z
2021-09-26T06:50:11Z,42.805,6.029,13.2991,4.60008,2470.437,2021-9-26T08:51:33Z
2021-09-26T06:53:14Z,42.805,6.029,13.2992,4.60007,2470.413,2021-9-26T08:54:36Z
2021-09-26T06:56:18Z,42.805,6.029,13.2996,4.60008,2470.46,2021-9-26T08:57:39Z
2021-09-26T06:59:21Z,42.805,6.029,13.2990,4.60006,2470.45,2021-9-26T09:00:43Z
2021-09-26T07:02:24Z,42.805,6.029,13.2991,4.60011,2470.46,2021-9-26T09:03:46Z
2021-09-26T07:05:27Z,42.805,6.029,13.2995,4.60014,2470.427,2021-9-26T09:06:49Z
2021-09-26T07:08:30Z,42.805,6.029,13.2990,4.60007,2470.474,2021-9-26T09:09:52Z
2021-09-26T07:11:33Z,42.805,6.029,13.2994,4.60009,2470.46,2021-9-26T09:12:55Z
2021-09-26T07:14:36Z,42.805,6.029,13.2991,4.60009,2470.437,2021-9-26T09:15:58Z
2021-09-26T07:17:39Z,42.805,6.029,13.2990,4.60010,2470.45,2021-9-26T09:19:01Z
2021-09-26T07:20:43Z,42.805,6.029,13.2990,4.60008,2470.413,2021-9-26T09:22:04Z
2021-09-26T07:23:46Z,42.805,6.029,13.2991,4.60011,2470.483,2021-9-26T09:25:08Z
2021-09-26T07:26:49Z,42.805,6.029,13.2991,4.60009,2470.46,2021-9-26T09:28:11Z
2021-09-26T07:29:52Z,42.805,6.029,13.2989,4.60013,2470.45,2021-9-26T09:31:14Z
2021-09-26T07:32:55Z,42.805,6.029,13.2995,4.60013,2470.46,2021-9-26T09:34:17Z
2021-09-26T07:35:58Z,42.805,6.029,13.2991,4.60009,2470.483,2021-9-26T09:37:20Z
2021-09-26T07:39:01Z,42.805,6.029,13.2990,4.60009,2470.474,2021-9-26T09:40:23Z
2021-09-26T07:42:04Z,42.805,6.029,13.2990,4.60010,2470.46,2021-9-26T09:43:26Z
2021-09-26T07:45:07Z,42.805,6.029,13.2990,4.60008,2470.497,2021-9-26T09:46:29Z
2021-09-26T07:48:11Z,42.805,6.029,13.2992,4.60014,2470.497,2021-9-26T09:49:33Z
2021-09-26T07:51:14Z,42.805,6.029,13.2991,4.60016,2470.483,2021-9-26T09:52:36Z
2021-09-26T07:54:17Z,42.805,6.029,13.2995,4.60011,2470.497,2021-9-26T09:55:39Z
2021-09-26T07:57:20Z,42.805,6.029,13.2992,4.60010,2470.46,2021-9-26T09:58:42Z
2021-09-26T08:00:23Z,42.805,6.029,13.2994,4.60011,2470.46,2021-9-26T10:01:45Z
2021-09-26T08:03:26Z,42.805,6.029,13.2990,4.60012,2470.507,2021-9-26T10:04:48Z
2021-09-26T08:06:29Z,42.805,6.029,13.2986,4.60014,2470.52,2021-9-26T10:07:51Z
2021-09-26T08:09:32Z,42.805,6.029,13.2989,4.60011,2470.507,2021-9-26T10:10:54Z
2021-09-26T08:12:36Z,42.805,6.029,13.2987,4.60017,2470.507,2021-9-26T10:13:58Z
2021-09-26T08:15:39Z,42.805,6.029,13.2990,4.60013,2470.544,2021-9-26T10:17:01Z
2021-09-26T08:18:42Z,42.805,6.029,13.2990,4.60009,2470.52,2021-9-26T10:20:04Z
2021-09-26T08:21:45Z,42.805,6.029,13.2990,4.60013,2470.53,2021-9-26T10:23:07Z
2021-09-26T08:24:48Z,42.805,6.029,13.2989,4.60014,2470.483,2021-9-26T10:26:10Z
2021-09-26T08:27:51Z,42.805,6.029,13.2991,4.60009,2470.507,2021-9-26T10:29:13Z
2021-09-26T08:30:54Z,42.805,6.029,13.2991,4.60009,2470.53,2021-9-26T10:32:16Z
2021-09-26T08:33:57Z,42.805,6.029,13.2991,4.60014,2470.544,2021-9-26T10:35:19Z
2021-09-26T08:37:01Z,42.805,6.029,13.2990,4.60016,2470.507,2021-9-26T10:38:23Z
2021-09-26T08:40:04Z,42.805,6.029,13.2991,4.60022,2470.507,2021-9-26T10:41:26Z
2021-09-26T08:43:07Z,42.805,6.029,13.2992,4.60011,2470.544,2021-9-26T10:44:29Z
2021-09-26T08:46:10Z,42.805,6.029,13.2993,4.60009,2470.53,2021-9-26T10:47:32Z
2021-09-26T08:49:13Z,42.805,6.029,13.2993,4.60016,2470.553,2021-9-26T10:50:35Z
2021-09-26T08:52:16Z,42.805,6.029,13.2993,4.60013,2470.544,2021-9-26T10:53:38Z
2021-09-26T08:55:19Z,42.805,6.029,13.2991,4.60017,2470.53,2021-9-26T10:56:41Z
2021-09-26T08:58:23Z,42.805,6.029,13.2993,4.60015,2470.53,2021-9-26T10:59:45Z
2021-09-26T09:01:26Z,42.805,6.029,13.2992,4.60017,2470.567,2021-9-26T11:02:48Z
2021-09-26T09:04:29Z,42.805,6.029,13.2990,4.60013,2470.53,2021-9-26T11:05:51Z
2021-09-26T09:07:32Z,42.805,6.029,13.2990,4.60016,2470.567,2021-9-26T11:08:54Z
2021-09-26T09:10:35Z,42.805,6.029,13.2990,4.60016,2470.53,2021-9-26T11:11:57Z
2021-09-26T09:13:38Z,42.805,6.029,13.2991,4.60016,2470.553,2021-9-26T11:15:00Z
2021-09-26T09:16:41Z,42.805,6.029,13.2994,4.60011,2470.567,2021-9-26T11:18:03Z
2021-09-26T09:19:44Z,42.805,6.029,13.2990,4.60019,2470.53,2021-9-26T11:21:06Z
2021-09-26T09:22:48Z,42.805,6.029,13.2992,4.60016,2470.567,2021-9-26T11:24:09Z
2021-09-26T09:25:51Z,42.805,6.029,13.2991,4.60014,2470.53,2021-9-26T11:27:13Z
2021-09-26T09:28:54Z,42.805,6.029,13.2993,4.60014,2470.553,2021-9-26T11:30:16Z
2021-09-26T09:31:57Z,42.805,6.029,13.2990,4.60017,2470.553,2021-9-26T11:33:19Z
2021-09-26T09:35:00Z,42.805,6.029,13.2990,4.60013,2470.591,2021-9-26T11:36:22Z
2021-09-26T09:38:03Z,42.805,6.029,13.2994,4.60017,2470.553,2021-9-26T11:39:25Z
2021-09-26T09:41:06Z,42.805,6.029,13.2994,4.60014,2470.53,2021-9-26T11:42:28Z
2021-09-26T09:44:09Z,42.805,6.029,13.2991,4.60013,2470.544,2021-9-26T11:45:31Z
2021-09-26T09:47:13Z,42.805,6.029,13.2992,4.60011,2470.577,2021-9-26T11:48:35Z
2021-09-26T09:50:16Z,42.805,6.029,13.2991,4.60014,2470.567,2021-9-26T11:51:38Z
2021-09-26T09:53:19Z,42.805,6.029,13.2991,4.60015,2470.553,2021-9-26T11:54:41Z
2021-09-26T09:56:22Z,42.805,6.029,13.2991,4.60017,2470.567,2021-9-26T11:57:44Z
2021-09-26T09:59:25Z,42.805,6.029,13.2992,4.60012,2470.53,2021-9-26T12:00:47Z
2021-09-26T10:02:28Z,42.805,6.029,13.2991,4.60014,2470.553,2021-9-26T12:03:50Z
2021-09-26T10:05:31Z,42.805,6.029,13.2991,4.60020,2470.53,2021-9-26T12:06:53Z
2021-09-26T10:08:34Z,42.805,6.029,13.2993,4.60014,2470.577,2021-9-26T12:09:56Z
2021-09-26T10:11:38Z,42.805,6.029,13.2992,4.60011,2470.577,2021-9-26T12:13:00Z
2021-09-26T10:14:41Z,42.805,6.029,13.2991,4.60013,2470.614,2021-9-26T12:16:03Z
2021-09-26T10:17:44Z,42.805,6.029,13.2991,4.60009,2470.53,2021-9-26T12:19:06Z
2021-09-26T10:20:47Z,42.805,6.029,13.2991,4.60010,2470.591,2021-9-26T12:22:09Z
2021-09-26T10:23:50Z,42.805,6.029,13.2987,4.60010,2470.591,2021-9-26T12:25:12Z
2021-09-26T10:26:53Z,42.805,6.029,13.2990,4.60015,2470.544,2021-9-26T12:28:15Z
2021-09-26T10:29:56Z,42.805,6.029,13.2991,4.60014,2470.567,2021-9-26T12:31:18Z
2021-09-26T10:32:59Z,42.805,6.029,13.2991,4.60011,2470.567,2021-9-26T12:34:21Z
2021-09-26T10:36:03Z,42.805,6.029,13.2991,4.60013,2470.577,2021-9-26T12:37:25Z
2021-09-26T10:39:06Z,42.805,6.029,13.2991,4.60015,2470.553,2021-9-26T12:40:28Z
2021-09-26T10:42:09Z,42.805,6.029,13.2991,4.60014,2470.591,2021-9-26T12:43:31Z
2021-09-26T10:45:12Z,42.805,6.029,13.2991,4.60013,2470.591,2021-9-26T12:46:34Z
2021-09-26T10:48:15Z,42.805,6.029,13.2991,4.60013,2470.591,2021-9-26T12:49:37Z
2021-09-26T10:51:18Z,42.805,6.029,13.2991,4.60011,2470.553,2021-9-26T12:52:40Z
2021-09-26T10:54:21Z,42.805,6.029,13.2987,4.60011,2470.591,2021-9-26T12:55:43Z
2021-09-26T10:57:24Z,42.805,6.029,13.2990,4.60010,2470.553,2021-9-26T12:58:46Z
2021-09-26T11:00:28Z,42.805,6.029,13.2993,4.60016,2470.567,2021-9-26T13:01:50Z
2021-09-26T11:03:31Z,42.805,6.029,13.2992,4.60011,2470.577,2021-9-26T13:04:53Z
2021-09-26T11:06:34Z,42.805,6.029,13.2994,4.60011,2470.544,2021-9-26T13:07:56Z
2021-09-26T11:09:37Z,42.805,6.029,13.2991,4.60012,2470.544,2021-9-26T13:10:59Z
2021-09-26T11:12:40Z,42.805,6.029,13.2991,4.60011,2470.553,2021-9-26T13:14:02Z
2021-09-26T11:15:43Z,42.805,6.029,13.2990,4.60011,2470.553,2021-9-26T13:17:05Z
2021-09-26T11:18:46Z,42.805,6.029,13.2990,4.60010,2470.567,2021-9-26T13:20:08Z
2021-09-26T11:21:49Z,42.805,6.029,13.2993,4.60011,2470.53,2021-9-26T13:23:11Z
2021-09-26T11:24:53Z,42.805,6.029,13.2994,4.60010,2470.52,2021-9-26T13:26:15Z
2021-09-26T11:27:56Z,42.805,6.029,13.2993,4.60011,2470.507,2021-9-26T13:29:18Z
2021-09-26T11:30:59Z,42.805,6.029,13.2992,4.60010,2470.544,2021-9-26T13:32:21Z
2021-09-26T11:34:02Z,42.805,6.029,13.2991,4.60011,2470.544,2021-9-26T13:35:24Z
2021-09-26T11:37:05Z,42.805,6.029,13.2994,4.60010,2470.567,2021-9-26T13:38:27Z
2021-09-26T11:40:08Z,42.805,6.029,13.2991,4.60009,2470.53,2021-9-26T13:41:30Z
2021-09-26T11:43:11Z,42.805,6.029,13.2993,4.60011,2470.53,2021-9-26T13:44:33Z
2021-09-26T11:46:14Z,42.805,6.029,13.2992,4.60010,2470.52,2021-9-26T13:47:36Z
2021-09-26T11:49:18Z,42.805,6.029,13.2996,4.60009,2470.52,2021-9-26T13:50:40Z
2021-09-26T11:52:21Z,42.805,6.029,13.2992,4.60014,2470.507,2021-9-26T13:53:43Z
2021-09-26T11:55:24Z,42.805,6.029,13.2990,4.60012,2470.497,2021-9-26T13:56:46Z
2021-09-26T11:58:27Z,42.805,6.029,13.2992,4.60014,2470.483,2021-9-26T13:59:49Z
2021-09-26T12:01:30Z,42.805,6.029,13.2993,4.60013,2470.53,2021-9-26T14:02:52Z
2021-09-26T12:04:33Z,42.805,6.029,13.2992,4.60012,2470.507,2021-9-26T14:05:55Z
2021-09-26T12:07:36Z,42.805,6.029,13.2992,4.60014,2470.507,2021-9-26T14:08:58Z
2021-09-26T12:10:40Z,42.805,6.029,13.2991,4.60011,2470.507,2021-9-26T14:12:01Z
2021-09-26T12:13:43Z,42.805,6.029,13.2993,4.60009,2470.53,2021-9-26T14:15:05Z
2021-09-26T12:16:46Z,42.805,6.029,13.2990,4.60009,2470.53,2021-9-26T14:18:08Z
2021-09-26T12:19:49Z,42.805,6.029,13.2992,4.60009,2470.52,2021-9-26T14:21:11Z
2021-09-26T12:22:52Z,42.805,6.029,13.2990,4.60009,2470.567,2021-9-26T14:24:14Z
2021-09-26T12:25:55Z,42.805,6.029,13.2993,4.60009,2470.544,2021-9-26T14:27:17Z
2021-09-26T12:28:58Z,42.805,6.029,13.2990,4.60011,2470.483,2021-9-26T14:30:20Z
2021-09-26T12:32:01Z,42.805,6.029,13.2993,4.60010,2470.497,2021-9-26T14:33:23Z
2021-09-26T12:35:05Z,42.805,6.029,13.2993,4.60010,2470.483,2021-9-26T14:36:26Z
2021-09-26T12:38:08Z,42.805,6.029,13.2992,4.60011,2470.46,2021-9-26T14:39:30Z
2021-09-26T12:41:11Z,42.805,6.029,13.2990,4.60009,2470.474,2021-9-26T14:42:33Z
2021-09-26T12:44:14Z,42.805,6.029,13.2993,4.60011,2470.497,2021-9-26T14:45:36Z
2021-09-26T12:47:17Z,42.805,6.029,13.2995,4.60009,2470.497,2021-9-26T14:48:39Z
2021-09-26T12:50:20Z,42.805,6.029,13.2987,4.60009,2470.483,2021-9-26T14:51:42Z
2021-09-26T12:53:23Z,42.805,6.029,13.2996,4.60011,2470.483,2021-9-26T14:54:45Z
2021-09-26T12:56:26Z,42.805,6.029,13.2991,4.60009,2470.507,2021-9-26T14:57:48Z
2021-09-26T12:59:30Z,42.805,6.029,13.2993,4.60009,2470.497,2021-9-26T15:00:51Z
2021-09-26T13:02:33Z,42.805,6.029,13.2994,4.60009,2470.52,2021-9-26T15:03:55Z
2021-09-26T13:05:36Z,42.805,6.029,13.2993,4.60010,2470.507,2021-9-26T15:06:58Z
2021-09-26T13:08:39Z,42.805,6.029,13.2991,4.60009,2470.507,2021-9-26T15:10:01Z
2021-09-26T13:11:42Z,42.805,6.029,13.2993,4.60009,2470.497,2021-9-26T15:13:04Z
2021-09-26T13:14:45Z,42.805,6.029,13.2991,4.60009,2470.483,2021-9-26T15:16:07Z
2021-09-26T13:17:48Z,42.805,6.029,13.2990,4.60010,2470.46,2021-9-26T15:19:10Z
2021-09-26T13:20:51Z,42.805,6.029,13.2991,4.60010,2470.46,2021-9-26T15:22:13Z
2021-09-26T13:23:55Z,42.805,6.029,13.2991,4.60008,2470.483,2021-9-26T15:25:16Z
2021-09-26T13:26:58Z,42.805,6.029,13.2993,4.60009,2470.507,2021-9-26T15:28:20Z
2021-09-26T13:30:01Z,42.805,6.029,13.2991,4.60009,2470.46,2021-9-26T15:31:23Z
2021-09-26T13:33:04Z,42.805,6.029,13.2991,4.60010,2470.483,2021-9-26T15:34:26Z
2021-09-26T13:36:07Z,42.805,6.029,13.2993,4.60009,2470.483,2021-9-26T15:37:29Z
2021-09-26T13:39:10Z,42.805,6.029,13.2993,4.60009,2470.497,2021-9-26T15:40:32Z
2021-09-26T13:42:13Z,42.805,6.029,13.2991,4.60009,2470.437,2021-9-26T15:43:35Z
2021-09-26T13:45:16Z,42.805,6.029,13.2991,4.60009,2470.474,2021-9-26T15:46:38Z
2021-09-26T13:48:20Z,42.805,6.029,13.2993,4.60007,2470.474,2021-9-26T15:49:41Z
2021-09-26T13:51:23Z,42.805,6.029,13.2990,4.60008,2470.46,2021-9-26T15:52:45Z
2021-09-26T13:54:26Z,42.805,6.029,13.2993,4.60009,2470.483,2021-9-26T15:55:48Z
2021-09-26T13:57:29Z,42.805,6.029,13.2990,4.60008,2470.437,2021-9-26T15:58:51Z
2021-09-26T14:00:32Z,42.805,6.029,13.2992,4.60010,2470.483,2021-9-26T16:01:54Z
2021-09-26T14:03:35Z,42.805,6.029,13.2988,4.60011,2470.446,2021-9-26T16:04:57Z
2021-09-26T14:06:38Z,42.805,6.029,13.2991,4.60010,2470.46,2021-9-26T16:08:00Z
2021-09-26T14:09:41Z,42.805,6.029,13.2989,4.60009,2470.437,2021-9-26T16:11:03Z
2021-09-26T14:12:45Z,42.805,6.029,13.2989,4.60009,2470.437,2021-9-26T16:14:07Z
2021-09-26T14:15:48Z,42.805,6.029,13.2993,4.60008,2470.46,2021-9-26T16:17:10Z
2021-09-26T14:18:51Z,42.805,6.029,13.2993,4.60009,2470.474,2021-9-26T16:20:13Z
2021-09-26T14:21:54Z,42.805,6.029,13.2990,4.60009,2470.46,2021-9-26T16:23:16Z
2021-09-26T14:24:57Z,42.805,6.029,13.2993,4.60009,2470.497,2021-9-26T16:26:19Z
2021-09-26T14:28:00Z,42.805,6.029,13.2995,4.60009,2470.47,2021-9-26T16:29:22Z
2021-09-26T14:31:03Z,42.805,6.029,13.2993,4.60008,2470.46,2021-9-26T16:32:25Z
2021-09-26T14:34:06Z,42.805,6.029,13.2992,4.60011,2470.45,2021-9-26T16:35:28Z
2021-09-26T14:37:10Z,42.805,6.029,13.2991,4.60010,2470.437,2021-9-26T16:38:32Z
2021-09-26T14:40:13Z,42.805,6.029,13.2993,4.60009,2470.46,2021-9-26T16:41:35Z
2021-09-26T14:43:16Z,42.805,6.029,13.2991,4.60010,2470.474,2021-9-26T16:44:38Z
2021-09-26T14:46:19Z,42.805,6.029,13.2990,4.60009,2470.437,2021-9-26T16:47:41Z
2021-09-26T14:49:22Z,42.805,6.029,13.2995,4.60009,2470.437,2021-9-26T16:50:44Z
2021-09-26T14:52:25Z,42.805,6.029,13.2991,4.60009,2470.45,2021-9-26T16:53:47Z
2021-09-26T14:55:28Z,42.805,6.029,13.2993,4.60009,2470.437,2021-9-26T16:56:50Z
2021-09-26T14:58:32Z,42.805,6.029,13.2994,4.60009,2470.413,2021-9-26T16:59:53Z
2021-09-26T15:01:35Z,42.805,6.029,13.2990,4.60009,2470.45,2021-9-26T17:02:57Z
2021-09-26T15:04:38Z,42.805,6.029,13.2990,4.60011,2470.46,2021-9-26T17:06:00Z
2021-09-26T15:07:41Z,42.805,6.029,13.2996,4.60010,2470.437,2021-9-26T17:09:03Z
2021-09-26T15:10:44Z,42.805,6.029,13.2989,4.60009,2470.427,2021-9-26T17:12:06Z
2021-09-26T15:13:47Z,42.805,6.029,13.2988,4.60009,2470.437,2021-9-26T17:15:09Z